EW6762 Weather Reports


time (UTC)temp
F
wind
direction
speed
knots
gust
knots
rain 1hr
in
rain 24hr
in
rain mn
in
humidity
%
barometer
mb
20260508210315 79 102 2.6 6.1 0.00 1.22 0.01 42 1015.4
20260508205312 78 113 2.6 6.1 0.00 1.22 0.01 44 1015.5
20260508204309 77 140 2.6 7.0 0.00 1.22 0.01 41 1015.7
20260508203310 79 209 2.6 6.1 0.00 1.22 0.01 42 1015.8
20260508202323 78 203 2.6 5.2 0.00 1.22 0.01 42 1015.8
20260508201348 78 67 3.5 7.0 0.00 1.22 0.01 42 1015.8
20260508200323 78 75 2.6 8.7 0.00 1.22 0.01 41 1016.1
20260508195324 78 112 1.7 5.2 0.00 1.22 0.01 43 1016.0
20260508194315 78 293 1.7 4.3 0.00 1.22 0.01 45 1016.2
20260508193333 77 64 2.6 7.0 0.00 1.22 0.01 44 1016.3
20260508192309 76 119 3.5 6.1 0.00 1.22 0.01 44 1016.6
20260508191325 76 142 1.7 5.2 0.00 1.22 0.01 43 1016.6
20260508190328 76 254 2.6 4.3 0.00 1.22 0.01 42 1016.7
20260508185323 77 86 4.3 7.8 0.00 1.26 0.01 45 1016.7
20260508184319 76 193 1.7 5.2 0.00 1.26 0.01 47 1016.9
20260508183309 75 32 3.5 5.2 0.00 1.26 0.01 50 1017.1
20260508182310 75 5 0.9 5.2 0.00 1.26 0.01 43 1017.2
20260508181327 75 132 1.7 4.3 0.00 1.26 0.01 45 1017.5
20260508180328 75 271 1.7 6.1 0.00 1.26 0.01 42 1017.5
20260508175320 75 156 1.7 6.1 0.00 1.26 0.01 45 1017.6
20260508174314 74 142 0.9 7.0 0.00 1.26 0.01 42 1017.6
20260508173315 73 106 1.7 7.0 0.00 1.26 0.01 45 1017.8
20260508172356 74 142 2.6 7.0 0.00 1.26 0.01 47 1018.0
20260508171357 74 183 1.7 10.4 0.00 1.26 0.01 48 1018.0
20260508170331 74 160 3.5 9.6 0.00 1.26 0.01 45 1017.9
20260508165330 74 117 4.3 9.6 0.00 1.50 0.01 48 1018.0
20260508164339 73 41 2.6 7.8 0.00 1.50 0.01 51 1018.3
20260508163339 73 18 4.3 8.7 0.00 1.50 0.01 51 1018.6
20260508162311 72 78 2.6 7.8 0.00 1.50 0.01 53 1018.6
20260508161317 71 128 5.2 8.7 0.00 1.50 0.01 51 1018.6
20260508160311 72 325 2.6 10.4 0.00 1.50 0.01 53 1018.7
20260508155330 73 72 3.5 8.7 0.00 1.69 0.01 54 1018.8
20260508154320 72 144 3.5 8.7 0.00 1.69 0.01 56 1018.9
20260508153316 71 65 3.5 7.8 0.00 1.69 0.01 59 1018.8
20260508152351 70 38 6.1 10.4 0.00 1.69 0.01 57 1018.8
20260508151318 69 113 4.3 8.7 0.00 1.69 0.01 64 1018.8
20260508150334 68 342 3.5 7.8 0.00 1.69 0.01 67 1018.9
20260508145321 67 347 5.2 10.4 0.00 1.97 0.01 63 1018.9
20260508144338 67 355 1.7 9.6 0.00 1.97 0.01 70 1019.0
20260508143326 66 5 2.6 8.7 0.00 1.97 0.01 66 1018.8
20260508142324 65 325 6.1 9.6 0.04 1.97 0.01 68 1018.8
20260508141316 65 31 2.6 6.1 0.04 1.97 0.01 73 1018.8
20260508140332 64 346 1.7 7.0 0.04 1.97 0.01 79 1018.8
20260508135319 63 344 3.5 6.1 0.04 1.97 0.01 79 1018.9
20260508134335 62 26 1.7 7.8 0.04 1.97 0.01 80 1018.8
20260508133324 61 285 1.7 7.0 0.04 1.97 0.01 85 1018.7
20260508132319 60 18 1.7 5.2 0.00 1.93 0.00 89 1018.6
20260508131308 58 355 2.6 7.0 0.00 1.93 0.00 91 1018.5
20260508130324 58 348 2.6 7.0 0.00 1.93 0.00 92 1018.4
20260508125318 57 281 3.5 7.0 0.00 1.97 0.00 94 1018.4
20260508124312 57 360 1.7 5.2 0.00 1.97 0.00 94 1018.4
20260508123317 57 338 2.6 5.2 0.00 1.97 0.00 95 1018.4
20260508122342 57 349 1.7 7.0 0.00 1.97 0.00 95 1018.1
20260508121315 57 282 2.6 4.3 0.00 1.97 0.00 96 1018.0
20260508120333 56 321 1.7 3.5 0.00 1.97 0.00 96 1017.9
20260508115308 56 325 0.9 4.3 0.00 2.20 0.00 96 1017.8
20260508114310 56 347 1.7 3.5 0.00 2.20 0.00 96 1017.9
20260508113350 56 321 0.9 3.5 0.00 2.20 0.00 96 1017.7
20260508112323 56 284 1.7 3.5 0.00 2.20 0.00 96 1017.6
20260508111314 56 311 0.9 3.5 0.00 2.20 0.00 96 1017.3
20260508110312 56 309 0.9 3.5 0.00 2.20 0.00 96 1017.1
20260508105326 56 333 1.7 3.5 0.00 2.36 0.00 96 1017.0
20260508104325 56 291 1.7 3.5 0.00 2.36 0.00 96 1016.9
20260508103318 56 339 0.9 4.3 0.00 2.36 0.00 96 1016.6
20260508102315 56 312 1.7 3.5 0.00 2.36 0.00 96 1016.6
20260508101314 55 343 0.9 2.6 0.00 2.36 0.00 96 1016.5
20260508100310 55 350 0.9 4.3 0.00 2.36 0.00 96 1016.3
20260508095325 55 332 0.9 3.5 0.00 2.72 0.00 96 1016.1
20260508094320 55 5 2.6 4.3 0.00 2.72 0.00 95 1015.9
20260508093311 55 285 1.7 4.3 0.00 2.72 0.00 95 1015.9
20260508092333 56 304 1.7 2.6 0.00 2.72 0.00 95 1016.1
20260508091310 55 316 0.0 3.5 0.00 2.72 0.00 96 1015.8
20260508090332 55 347 1.7 3.5 0.00 2.72 0.00 95 1015.9
20260508085309 55 342 0.9 1.7 0.00 3.54 0.00 95 1015.9
20260508084320 55 281 0.0 2.6 0.00 3.54 0.00 95 1015.6
20260508083322 55 298 0.9 1.7 0.00 3.54 0.00 95 1015.5
20260508082312 56 321 0.0 1.7 0.00 3.54 0.00 95 1015.3
20260508081309 56 321 0.9 1.7 0.00 3.54 0.00 95 1015.4
20260508080325 56 311 0.9 1.7 0.00 3.54 0.00 95 1015.1
20260508075327 56 296 0.9 1.7 0.00 3.74 0.00 95 1015.1
20260508074318 56 284 0.9 1.7 0.00 3.74 0.00 95 1015.0
20260508073312 56 277 1.7 2.6 0.00 3.74 0.00 95 1014.9
20260508072311 56 302 0.9 1.7 0.00 3.74 0.00 95 1014.8
20260508071332 56 252 0.9 1.7 0.00 3.74 0.00 95 1014.8
20260508070348 56 265 0.9 2.6 0.00 3.74 0.00 95 1014.8
20260508065329 56 300 0.0 1.7 0.00 3.74 0.00 95 1014.6
20260508064326 56 300 0.9 1.7 0.00 3.74 0.00 95 1014.8
20260508063320 56 300 0.9 0.9 0.00 3.74 0.00 94 1014.7
20260508062321 56 300 0.0 0.9 0.00 3.74 0.00 94 1014.6
20260508061317 57 300 0.0 1.7 0.00 3.74 0.00 95 1014.6
20260508060313 57 300 0.0 0.9 0.00 3.74 0.00 94 1014.7
20260508055317 57 300 0.0 0.9 0.00 3.78 0.00 94 1014.7
20260508054314 57 300 0.9 1.7 0.00 3.78 0.00 95 1014.8
20260508053317 57 314 0.9 1.7 0.00 3.78 0.00 95 1014.8
20260508052333 57 321 0.9 0.9 0.00 3.78 0.00 94 1014.8
20260508051313 57 310 0.0 0.9 0.00 3.78 0.00 94 1014.7
20260508050326 57 310 0.9 1.7 0.00 3.78 0.00 94 1014.7
20260508045329 57 310 0.0 1.7 0.00 3.94 0.00 94 1014.4
20260508044323 57 308 0.9 1.7 0.00 3.94 0.00 94 1014.5
20260508043317 57 310 0.0 1.7 0.00 3.94 0.00 94 1014.4
20260508042338 57 310 0.9 2.6 0.00 3.94 0.00 94 1014.3
20260508041309 57 329 1.7 3.5 0.00 3.94 0.00 94 1014.1
20260508040327 58 345 0.9 3.5 0.00 3.94 0.00 94 1014.4
20260508035321 58 355 0.9 3.5 0.00 4.06 1.00 94 1014.3
20260508034325 58 306 0.9 3.5 0.00 4.06 1.00 94 1014.2
20260508033320 58 342 1.7 3.5 0.00 4.06 1.00 94 1014.1
20260508032313 57 278 1.7 3.5 0.00 4.06 1.00 94 1014.1
20260508031314 57 276 0.9 1.7 0.04 4.06 1.00 94 1013.9
20260508030313 57 321 0.9 1.7 0.04 4.06 1.00 94 1013.8
20260508025314 57 307 0.9 1.7 0.08 4.06 1.00 94 1013.7
20260508024310 57 300 0.9 5.2 0.08 4.06 1.00 94 1013.4
20260508023332 57 351 2.6 4.3 0.12 4.06 1.00 94 1013.1
20260508022326 57 350 2.6 7.0 0.16 4.06 1.00 94 1013.2
20260508021323 57 5 0.9 7.8 0.12 4.02 0.99 94 1013.0
20260508020325 57 5 1.7 5.2 0.12 4.02 0.99 94 1012.8
20260508015319 57 355 2.6 5.2 0.08 3.98 0.98 93 1013.0
20260508014314 57 317 1.7 2.6 0.28 3.98 0.98 93 1012.9
20260508013334 57 65 2.6 5.2 0.83 3.90 0.96 93 1012.3
20260508012336 57 5 1.7 4.3 0.98 3.90 0.96 93 1012.4
20260508011310 57 12 1.7 4.3 1.02 3.90 0.96 93 1012.4
20260508010334 57 34 1.7 4.3 1.02 3.90 0.96 92 1012.6
20260508005309 58 336 0.9 5.2 1.02 3.90 0.96 92 1012.3
20260508004329 58 340 1.7 7.0 0.83 3.70 0.91 91 1012.2
20260508003318 58 360 2.6 9.6 0.20 3.07 0.76 90 1011.3
20260508002335 58 324 2.6 9.6 0.04 2.91 0.71 89 1011.7
20260508001310 59 33 4.3 13.0 0.00 2.87 0.70 87 1011.1
20260508000324 59 324 2.6 9.6 0.00 2.87 0.70 86 1011.1
20260507235321 59 319 5.2 12.2 0.00 2.87 0.70 86 1010.8
20260507234336 59 329 5.2 9.6 0.00 2.87 0.70 86 1010.7
20260507233312 59 344 4.3 8.7 0.00 2.87 0.70 87 1010.8
20260507232326 60 360 7.0 11.3 0.00 2.87 0.70 87 1010.7
20260507231324 60 340 4.3 13.0 0.00 2.87 0.70 87 1010.5
20260507230317 61 335 4.3 13.9 0.00 2.87 0.70 87 1010.4
20260507225315 61 347 6.1 13.0 0.00 2.87 0.70 86 1010.0
20260507224351 62 326 5.2 10.4 0.00 2.87 0.70 87 1009.9
20260507223322 63 36 4.3 12.2 0.00 2.87 0.70 87 1009.8
20260507222318 63 96 4.3 15.6 0.00 2.87 0.70 87 1009.6
20260507221309 64 331 6.1 12.2 0.00 2.87 0.70 87 1009.9
20260507220325 65 340 6.1 18.2 0.00 2.87 0.70 86 1009.8
20260507215313 66 292 4.3 12.2 0.00 2.87 0.70 86 1009.9
20260507214330 67 305 6.1 14.8 0.00 2.87 0.70 84 1009.7
20260507212317 70 360 7.8 16.5 0.00 2.87 0.70 81 1008.9
20260507211322 70 343 5.2 10.4 0.00 2.87 0.70 83 1008.6